Location: Observatoires du Mont Megantic
(45.4500°N, 71.1500°W)
Time: 23:35:45
(UTC-04:00)

OTV 5 (USA 277) - Visible Passes

Search period start: 19 October 2017 00:00
Search period end: 29 October 2017 00:00
Orbit: 404 x 417 km, 43.0° (Epoch: 07 September)

Date Brightness Start Highest point End Pass type
(mag) Time Alt. Az. Time Alt. Az. Time Alt. Az.
19 Oct ? 18:35:13 10° W 18:38:30 49° S 18:41:42 10° ESE visible
19 Oct ? 20:12:51 10° WSW 20:14:27 18° SW 20:14:27 18° SW visible
20 Oct ? 19:21:35 10° W 19:24:29 26° SSW 19:25:53 20° SSE visible
21 Oct ? 18:30:25 10° W 18:33:31 34° SSW 18:36:36 10° SE visible
21 Oct ? 20:09:39 10° SW 20:10:10 10° SW 20:10:10 10° SW visible
22 Oct ? 19:17:21 10° WSW 19:19:20 15° SSW 19:21:18 10° S visible
23 Oct ? 18:25:53 10° WSW 18:28:26 20° SSW 18:30:59 10° SSE visible
25 Oct ? 18:22:48 10° SW 18:23:13 10° SW 18:23:38 10° SSW visible
